Hoquiam, WA
on Friday, February 15, 2013

Friday
Previous Day Next Day
Daily Summary
 ActualAverageRecord
Temperature
Mean Temperature °F 44°F  
Max Temperature 55°F 50°F 67°F (1996)
Min Temperature 42°F 38°F 20°F (1956)
Degree Days
Heating Degree Days 16 21  
Month to date heating degree days 325  
Cooling Degree Days 0 0  
Month to date cooling degree days 0  
Year to date cooling degree days 0  
Moisture
Dew Point 44°F   
Average Humidity 89    
Maximum Humidity 100    
Minimum Humidity 69    
Precipitation
Precipitation 0.00 in 0.24 in 3.94 in (1970)
Month to date precipitation 4.08  
Year to date precipitation 14.41  
Wind
Wind Speed 6 mph   
Max Wind Speed 15 mph   
Max Gust Speed 20 mph   
Visibility 10 miles   
Events     

Key: T is trace of precipitation, MM is missing value
Source: NWS Daily Summary
Time(PST)TemperatureDew PointHumidity Pressure Visibility Wind DirectionWind SpeedGust SpeedPrecipitationEvents Conditions
12:13 AM 48.2°F 46.4°F 93% 30.53 in 6.0 miles NNE 3.5 mph - N/A   Overcast
12:36 AM 46.4°F 46.4°F 100% 30.53 in 10.0 miles NNE 5.8 mph - N/A   Overcast
12:53 AM 46.9°F 46.0°F 97% 30.53 in 10.0 miles NNE 4.6 mph - N/A   Overcast
1:18 AM 46.4°F 46.4°F 100% 30.52 in 10.0 miles NE 4.6 mph - N/A   Overcast
1:53 AM 46.9°F 45.0°F 93% 30.52 in 10.0 miles NNE 3.5 mph - N/A   Overcast
2:14 AM 46.4°F 44.6°F 93% 30.51 in 10.0 miles NE 5.8 mph - N/A   Overcast
2:53 AM 46.0°F 45.0°F 96% 30.52 in 10.0 miles NE 4.6 mph - N/A   Overcast
3:32 AM 46.4°F 44.6°F 93% 30.49 in 10.0 miles NNE 5.8 mph - N/A   Overcast
3:53 AM 46.0°F 44.1°F 93% 30.49 in 10.0 miles NNE 5.8 mph - N/A   Overcast
4:18 AM 46.4°F 42.8°F 87% 30.48 in 10.0 miles NE 6.9 mph - N/A   Overcast
4:48 AM 46.4°F 42.8°F 87% 30.47 in 10.0 miles NNE 10.4 mph 17.3 mph N/A   Overcast
4:53 AM 46.0°F 43.0°F 89% 30.48 in 10.0 miles NE 9.2 mph - N/A   Overcast
5:29 AM 46.4°F 42.8°F 87% 30.46 in 10.0 miles NE 9.2 mph 17.3 mph N/A   Overcast
5:53 AM 46.0°F 43.0°F 89% 30.46 in 10.0 miles NE 8.1 mph - N/A   Overcast
6:53 AM 46.0°F 43.0°F 89% 30.45 in 10.0 miles NE 9.2 mph - N/A   Overcast
7:53 AM 46.0°F 43.0°F 89% 30.45 in 10.0 miles NE 9.2 mph - N/A   Overcast
8:53 AM 46.0°F 43.0°F 89% 30.43 in 10.0 miles NE 12.7 mph 19.6 mph N/A   Overcast
9:53 AM 46.9°F 43.0°F 86% 30.43 in 10.0 miles NE 11.5 mph - N/A   Overcast
10:38 AM 46.4°F 44.6°F 93% 30.40 in 10.0 miles NE 10.4 mph - N/A   Overcast
10:53 AM 46.9°F 44.1°F 90% 30.41 in 10.0 miles ENE 10.4 mph - N/A   Overcast
11:41 AM 48.2°F 44.6°F 87% 30.38 in 10.0 miles ENE 12.7 mph 19.6 mph N/A   Overcast
11:53 AM 48.9°F 44.1°F 83% 30.38 in 10.0 miles ENE 11.5 mph 19.6 mph N/A   Overcast
12:53 PM 48.9°F 44.1°F 83% 30.35 in 10.0 miles ENE 15.0 mph - N/A   Mostly Cloudy
1:44 PM 53.6°F 44.6°F 72% 30.31 in 10.0 miles NE 9.2 mph - N/A   Scattered Clouds
1:53 PM 53.1°F 45.0°F 74% 30.31 in 10.0 miles ENE 10.4 mph - N/A   Partly Cloudy
2:53 PM 53.1°F 46.9°F 80% 30.28 in 10.0 miles East 6.9 mph - N/A   Clear
3:53 PM 55.9°F 46.0°F 69% 30.26 in 10.0 miles ENE 3.5 mph - N/A   Clear
4:53 PM 55.9°F 46.0°F 69% 30.24 in 10.0 miles NE 5.8 mph - N/A   Clear
5:53 PM 52.0°F 45.0°F 77% 30.23 in 10.0 miles Calm Calm - N/A   Clear
6:53 PM 50.0°F 46.0°F 86% 30.23 in 10.0 miles North 5.8 mph - N/A   Clear
7:53 PM 46.9°F 45.0°F 93% 30.22 in 10.0 miles Calm Calm - N/A   Clear
8:53 PM 46.9°F 45.0°F 93% 30.21 in 10.0 miles NNE 3.5 mph - N/A   Clear
9:53 PM 42.1°F 41.0°F 96% 30.20 in 5.0 miles ENE 4.6 mph - N/A   Clear
10:53 PM 43.0°F 43.0°F 100% 30.20 in 10.0 miles ENE 4.6 mph - N/A   Clear
11:30 PM 42.8°F 42.8°F 100% 30.20 in 5.0 miles ENE 3.5 mph - N/A   Mostly Cloudy
11:53 PM 43.0°F 42.1°F 97% 30.21 in 7.0 miles Calm Calm - N/A   Overcast
Moon Phase
Feb. 15 Feb. 17 Feb. 25 Mar. 04 Mar. 11
Sunrise:07:19 AM (PST) Moon Rise:09:33 AM (PST)
Sunset:05:40 PM (PST) Moon Set:No Moon Set/

Copyright © 2014 The Weather Underground, Inc.